FREGAT R/B (44553 NORAD) Tracking and Keplerian Element Data

This shows tracking and keplerian element data for the satellite.

Feedback or suggestion? Click here.




ElementValue
Catalog44553
NameFREGAT R/B
Epoch Orbit56
Epoch Day297.25272347
Epoch Year2019
RAAN67.8585
Inclination63.853
Eccentricity0.6974856
Argument of Perigee269.9181
Mean Anonmoly81.5557
Mean Motion2.01508393
Decay Rate3.38E-06
L11 44553U 19065B 19297.25272347 .00000338 00000-0 00000+0 0 9995
L22 44553 63.8530 67.8585 6974856 269.9181 81.5557 2.01508393 561

Live tracking and technical data element details for FREGAT R/B (NORAD 44553). FREGAT R/B can be tracked NOW for your location showing map with azimuth and elevation plus other details from your city location.

Track the satellite on the map from your city or location and see movement details for azimuth, elevation, latitude, longitude, range, height, and movement on the map or in text.







IsCatalogInMostPopularTable: catalog: 44553, numindb: 21
Update: records affected: 1



GetName: 44553 FREGAT R/B

Hit Count: updated at: Thu, 05 Dec 2019 17:54:12 GMT